Orlando, FL

3:45 PM EDT on May 26, 2018 (GMT -0400)
Executive

Weather History for KORL - November, 2013

Change the Weather History Date:

Sunday, November 3, 2013

  Actual Average Record
Temperature  
Mean Temperature 67 °F -  
Max Temperature 77 °F 77 °F 90 °F (2015)
Min Temperature 59 °F 60 °F 50 °F (1996)
Cooling Degree Days 2    
Growing Degree Days 17 (Base 50)    
Moisture  
Dew Point 51 °F    
Average Humidity 60    
Maximum Humidity 90    
Minimum Humidity 29    
Precipitation  
Precipitation 0.00 in - - ()
Sea Level Pressure  
Sea Level Pressure 30.07 in    
Wind  
Wind Speed 8 mph (North)    
Max Wind Speed 15 mph    
Max Gust Speed 24 mph    
Visibility 10 miles    
Events      
Averages and records for this station are not official NWS values.
T = Trace of Precipitation, MM = Missing Value Source: NWS Daily Summary

Daily Weather History Graph

Daily Weather History Graph

Search for Another Location

Airport or City:

Astronomy

Nov. 03, 2013 Rise Set
Actual Time 6:38 AM EST 5:38 PM EST
Civil Twilight 6:14 AM EST 6:02 PM EST
Nautical Twilight 5:46 AM EST 6:30 PM EST
Astronomical Twilight 5:18 AM EST 6:58 PM EST
Moon 6:40 AM EST (11/3) 5:54 PM EST (11/3)
Length of Visible Light 11h 48m
Length of Day
10h 59m
New Moon, 0% of the Moon is Illuminated
Nov 3
New Moon
Nov 10
First Quarter
Nov 17
Full
Nov 25
Last Quarter
Dec 2
New

Hourly Weather History & Observations

Time (EST) Temp. Dew Point Humidity Pressure Visibility Wind Dir Wind Speed Gust Speed Precip Events Conditions
12:53 AM 64.0 °F 60.1 °F 87% 30.00 in 10.0 mi NNW 4.6 mph - N/A   Clear
1:53 AM 63.0 °F 59.0 °F 87% 30.00 in 10.0 mi NW 4.6 mph - N/A   Clear
1:53 AM 63.0 °F 57.9 °F 84% 29.99 in 10.0 mi NW 5.8 mph - N/A   Mostly Cloudy
2:53 AM 62.1 °F 59.0 °F 90% 29.99 in 10.0 mi NW 3.5 mph - N/A   Clear
3:53 AM 63.0 °F 60.1 °F 90% 30.00 in 10.0 mi NW 5.8 mph - N/A   Clear
4:53 AM 62.1 °F 55.0 °F 78% 30.01 in 10.0 mi NNW 9.2 mph - N/A   Clear
5:53 AM 60.1 °F 53.1 °F 78% 30.03 in 10.0 mi North 6.9 mph - N/A   Clear
6:53 AM 59.0 °F 52.0 °F 78% 30.05 in 10.0 mi North 8.1 mph - N/A   Clear
7:53 AM 62.1 °F 53.1 °F 72% 30.08 in 10.0 mi North 6.9 mph - N/A   Clear
8:53 AM 66.0 °F 54.0 °F 65% 30.09 in 10.0 mi North 10.4 mph - N/A   Clear
9:53 AM 70.0 °F 55.0 °F 59% 30.11 in 10.0 mi North 10.4 mph - N/A   Clear
10:53 AM 73.9 °F 50.0 °F 43% 30.10 in 10.0 mi NE 8.1 mph - N/A   Clear
11:53 AM 75.0 °F 41.0 °F 29% 30.09 in 10.0 mi North 12.7 mph 16.1 mph N/A   Clear
12:53 PM 75.9 °F 44.1 °F 32% 30.06 in 10.0 mi NNE 15.0 mph 21.9 mph N/A   Partly Cloudy
1:53 PM 75.9 °F 44.1 °F 32% 30.05 in 10.0 mi NNE 13.8 mph - N/A   Partly Cloudy
2:53 PM 75.9 °F 43.0 °F 31% 30.06 in 10.0 mi NNE 15.0 mph 24.2 mph N/A   Clear
3:53 PM 73.0 °F 48.0 °F 41% 30.06 in 10.0 mi NNE 11.5 mph 23.0 mph N/A   Clear
4:53 PM 72.0 °F 45.0 °F 38% 30.09 in 10.0 mi NE 12.7 mph 18.4 mph N/A   Clear
5:53 PM 70.0 °F 46.0 °F 42% 30.10 in 10.0 mi NNE 11.5 mph - N/A   Clear
6:53 PM 68.0 °F 48.0 °F 49% 30.12 in 10.0 mi North 6.9 mph - N/A   Clear
7:53 PM 66.0 °F 48.9 °F 54% 30.13 in 10.0 mi North 9.2 mph - N/A   Clear
8:53 PM 64.9 °F 51.1 °F 61% 30.14 in 10.0 mi North 6.9 mph - N/A   Clear
9:53 PM 64.0 °F 52.0 °F 65% 30.14 in 10.0 mi NNW 5.8 mph - N/A   Clear
10:53 PM 64.9 °F 53.1 °F 65% 30.14 in 10.0 mi North 6.9 mph - N/A   Partly Cloudy